^^
Saratoga-Weather Station Historical Data
Daily Summary for April 1, 2020 Units:  English    Metric   Both
Daily Weekly Monthly Yearly Custom
  High: Low: Average:
Temperature: 81.9 °F 51.6 °F 67.8 °F
Dew Point: 54.9 °F 43.9 °F 49.1 °F
Humidity: 76% 33% 53%
Wind Speed: 12.1mph 0mph 2.2mph
Wind Gust: 14mph - -
Wind- - ESE
Pressure: 30.1 in 30 in -
Precipitation: 0 in    
Historical Graphs
 
 
Tabular Data for April 1, 2020
Time Temperature Dew Point Pressure Wind Wind Speed Wind Gust Humidity Rainfall Rate (Hourly) solar
00:04 59.5 °F 46 °F 30.1 in ENE 2 mph 2 mph 61% 0 in 0 W/m2
00:09 59.4 °F 46.4 °F 30.1 in Calm   1 mph 62% 0 in 0 W/m2
00:14 59.2 °F 46.2 °F 30.1 in SSE 0.9 mph 2 mph 62% 0 in 0 W/m2
00:19 58.8 °F 45.9 °F 30.1 in Calm   1 mph 62% 0 in 0 W/m2
00:24 58.6 °F 46 °F 30.1 in SSE 0.9 mph 1 mph 63% 0 in 0 W/m2
00:29 58.5 °F 45.9 °F 30.1 in Calm   2 mph 63% 0 in 0 W/m2
00:34 58.3 °F 46.2 °F 30.1 in Calm   1 mph 64% 0 in 0 W/m2
00:40 58.3 °F 46.2 °F 30.1 in SE 0.9 mph 3 mph 64% 0 in 0 W/m2
00:45 58.3 °F 46.2 °F 30.1 in ESE 0.9 mph 1 mph 64% 0 in 0 W/m2
00:50 58.3 °F 46.2 °F 30.1 in SE 0.9 mph 1 mph 64% 0 in 0 W/m2
00:55 58.3 °F 46.2 °F 30.1 in SE 0.9 mph 2 mph 64% 0 in 0 W/m2
01:00 57.9 °F 46.2 °F 30.1 in SE 0.9 mph 2 mph 65% 0 in 0 W/m2
01:05 57.7 °F 46 °F 30.1 in South 0.9 mph 2 mph 65% 0 in 0 W/m2
01:10 57.7 °F 46 °F 30.1 in SE 0.9 mph 3 mph 65% 0 in 0 W/m2
01:15 57.7 °F 45.7 °F 30.1 in Calm   2 mph 64% 0 in 0 W/m2
01:20 57.6 °F 45.9 °F 30.1 in Calm   1 mph 65% 0 in 0 W/m2
01:25 57.4 °F 45.7 °F 30.1 in SSE 2 mph 3 mph 65% 0 in 0 W/m2
01:30 57.4 °F 46 °F 30.1 in SSE 0.9 mph 2 mph 66% 0 in 0 W/m2
01:35 57 °F 45.9 °F 30.1 in SSE 0.9 mph 3 mph 66% 0 in 0 W/m2
01:40 56.8 °F 45.7 °F 30.1 in SSE 2 mph 2 mph 66% 0 in 0 W/m2
01:45 56.8 °F 45.7 °F 30.1 in SSE 0.9 mph 2 mph 66% 0 in 0 W/m2
01:50 56.7 °F 45.5 °F 30.1 in SSE 0.9 mph 2 mph 66% 0 in 0 W/m2
01:55 56.5 °F 45.7 °F 30.1 in Calm   2 mph 67% 0 in 0 W/m2
02:00 56.1 °F 45.7 °F 30.1 in SSE 0.9 mph 1 mph 68% 0 in 0 W/m2
02:05 55.8 °F 45.3 °F 30.1 in SSE 0.9 mph 2 mph 68% 0 in 0 W/m2
02:10 55.6 °F 45.1 °F 30.1 in Calm     68% 0 in 0 W/m2
02:15 55.4 °F 45 °F 30.1 in ESE 0.9 mph 3 mph 68% 0 in 0 W/m2
02:20 55.6 °F 45.5 °F 30.1 in Calm   1 mph 69% 0 in 0 W/m2
02:25 55.6 °F 45.1 °F 30.1 in Calm   1 mph 68% 0 in 0 W/m2
02:30 55.8 °F 45.3 °F 30.1 in Calm   1 mph 68% 0 in 0 W/m2
02:35 55.8 °F 45.3 °F 30.1 in Calm   1 mph 68% 0 in 0 W/m2
02:41 55.6 °F 44.8 °F 30.1 in East 2 mph 3 mph 67% 0 in 0 W/m2
02:46 55.8 °F 45.3 °F 30.1 in Calm     68% 0 in 0 W/m2
02:51 55.6 °F 45.1 °F 30.1 in Calm   1 mph 68% 0 in 0 W/m2
02:56 55.6 °F 45.1 °F 30.1 in Calm   1 mph 68% 0 in 0 W/m2
03:01 55.2 °F 44.8 °F 30.1 in Calm   1 mph 68% 0 in 0 W/m2
03:06 55.2 °F 45.1 °F 30.1 in Calm   1 mph 69% 0 in 0 W/m2
03:11 55 °F 45.1 °F 30.1 in Calm   1 mph 69% 0 in 0 W/m2
03:16 55 °F 45.1 °F 30.1 in Calm   3 mph 69% 0 in 0 W/m2
03:21 54.9 °F 45 °F 30.1 in Calm     69% 0 in 0 W/m2
03:26 54.9 °F 45 °F 30.1 in Calm   3 mph 69% 0 in 0 W/m2
03:31 54.3 °F 44.8 °F 30.1 in Calm   1 mph 70% 0 in 0 W/m2
03:36 54.1 °F 45 °F 30.1 in Calm     71% 0 in 0 W/m2
03:41 54 °F 44.8 °F 30.1 in Calm     71% 0 in 0 W/m2
03:46 53.6 °F 44.4 °F 30.1 in Calm   1 mph 71% 0 in 0 W/m2
03:51 53.4 °F 44.6 °F 30.1 in Calm   2 mph 72% 0 in 0 W/m2
03:56 53.2 °F 44.4 °F 30.1 in Calm   1 mph 72% 0 in 0 W/m2
04:01 53.1 °F 44.2 °F 30.1 in Calm   1 mph 72% 0 in 0 W/m2
04:06 53.1 °F 44.2 °F 30.1 in Calm   1 mph 72% 0 in 0 W/m2
04:11 52.9 °F 44.4 °F 30.1 in Calm   1 mph 73% 0 in 0 W/m2
04:16 52.9 °F 44.4 °F 30.1 in Calm   1 mph 73% 0 in 0 W/m2
04:21 52.7 °F 44.2 °F 30.1 in South 0.9 mph 1 mph 73% 0 in 0 W/m2
04:27 52.7 °F 44.2 °F 30.1 in Calm     73% 0 in 0 W/m2
04:32 52.5 °F 44.4 °F 30.1 in Calm   1 mph 74% 0 in 0 W/m2
04:37 52.5 °F 44.1 °F 30.1 in South 0.9 mph 1 mph 73% 0 in 0 W/m2
04:42 52.5 °F 44.4 °F 30.1 in South 0.9 mph 1 mph 74% 0 in 0 W/m2
04:47 52.3 °F 44.2 °F 30.1 in South 0.9 mph 2 mph 74% 0 in 0 W/m2
04:52 52.3 °F 44.2 °F 30.1 in Calm   1 mph 74% 0 in 0 W/m2
04:57 52.2 °F 44.4 °F 30.1 in Calm     75% 0 in 0 W/m2
05:02 52 °F 44.2 °F 30.1 in Calm   1 mph 75% 0 in 0 W/m2
05:07 51.8 °F 44.1 °F 30.1 in Calm     75% 0 in 0 W/m2
05:12 51.6 °F 43.9 °F 30.1 in South 0.9 mph 2 mph 75% 0 in 0 W/m2
05:17 51.8 °F 44.4 °F 30.1 in Calm   1 mph 76% 0 in 0 W/m2
05:22 51.8 °F 44.4 °F 30.1 in Calm     76% 0 in 0 W/m2
05:27 52 °F 44.2 °F 30.1 in Calm   1 mph 75% 0 in 0 W/m2
05:32 52 °F 44.2 °F 30.1 in Calm   1 mph 75% 0 in 0 W/m2
05:37 52 °F 44.6 °F 30.1 in South 0.9 mph 2 mph 76% 0 in 5 W/m2
05:42 52 °F 44.2 °F 30.1 in Calm   1 mph 75% 0 in 7 W/m2
05:47 52.2 °F 44.4 °F 30.1 in South 2 mph 2 mph 75% 0 in 9 W/m2
05:52 52.2 °F 44.4 °F 30.1 in Calm   1 mph 75% 0 in 11 W/m2
05:57 52.3 °F 44.2 °F 30.1 in SSE 0.9 mph 1 mph 74% 0 in 12 W/m2
06:02 52.5 °F 44.4 °F 30.1 in Calm     74% 0 in 14 W/m2
06:07 52.9 °F 44.8 °F 30.1 in Calm   1 mph 74% 0 in 16 W/m2
06:12 53.1 °F 44.6 °F 30.1 in Calm     73% 0 in 18 W/m2
06:17 53.2 °F 44.8 °F 30.1 in Calm   2 mph 73% 0 in 19 W/m2
06:22 53.4 °F 45 °F 30.1 in Calm     73% 0 in 21 W/m2
06:27 53.8 °F 45 °F 30.1 in Calm   1 mph 72% 0 in 23 W/m2
06:32 54.1 °F 44.6 °F 30.1 in ENE 2 mph 3 mph 70% 0 in 25 W/m2
06:38 54.7 °F 44.8 °F 30.1 in East 2 mph 2 mph 69% 0 in 26 W/m2
06:43 55 °F 44.6 °F 30.1 in Calm   2 mph 68% 0 in 26 W/m2
06:48 55.2 °F 44.8 °F 30.1 in Calm   1 mph 68% 0 in 28 W/m2
06:53 55.6 °F 45.1 °F 30.1 in East 0.9 mph 2 mph 68% 0 in 28 W/m2
06:58 55.8 °F 45 °F 30.1 in Calm   2 mph 67% 0 in 30 W/m2
07:03 55.9 °F 45.1 °F 30.1 in ESE 0.9 mph 2 mph 67% 0 in 32 W/m2
07:08 56.1 °F 45.3 °F 30.1 in NE 2 mph 4 mph 67% 0 in 32 W/m2
07:13 56.1 °F 45.3 °F 30.1 in Calm   1 mph 67% 0 in 33 W/m2
07:18 56.5 °F 45.7 °F 30.1 in North 2 mph 3 mph 67% 0 in 33 W/m2
07:23 56.5 °F 45.7 °F 30.1 in ESE 2 mph 4 mph 67% 0 in 35 W/m2
07:28 56.7 °F 45.9 °F 30.1 in East 2 mph 2 mph 67% 0 in 35 W/m2
07:33 56.8 °F 46 °F 30.1 in East 0.9 mph 2 mph 67% 0 in 37 W/m2
07:39 57 °F 46.2 °F 30.1 in East 2.9 mph 5 mph 67% 0 in 95 W/m2
07:44 57.4 °F 46.6 °F 30.1 in ENE 0.9 mph 3 mph 67% 0 in 223 W/m2
07:49 57.9 °F 46.6 °F 30.1 in ESE 0.9 mph 6 mph 66% 0 in 244 W/m2
07:54 58.8 °F 47.1 °F 30.1 in ENE 4 mph 4 mph 65% 0 in 260 W/m2
07:59 59.5 °F 46.9 °F 30.1 in ENE 2.9 mph 6 mph 63% 0 in 272 W/m2
08:04 60.3 °F 47.1 °F 30.1 in Calm   2 mph 62% 0 in 287 W/m2
08:09 61.2 °F 47.7 °F 30.1 in ENE 0.9 mph 6 mph 61% 0 in 302 W/m2
08:14 62.1 °F 47.5 °F 30.1 in ENE 2 mph 7 mph 59% 0 in 315 W/m2
08:19 62.4 °F 47.5 °F 30.1 in East 6 mph 9 mph 58% 0 in 329 W/m2
08:24 62.6 °F 47.7 °F 30.1 in NE 2.9 mph 4 mph 58% 0 in 343 W/m2
08:29 62.4 °F 47.8 °F 30.1 in North 2 mph 9 mph 59% 0 in 353 W/m2
08:34 62.2 °F 47.3 °F 30.1 in SE 0.9 mph 6 mph 58% 0 in 367 W/m2
08:39 62.6 °F 47.7 °F 30.1 in ENE 2.9 mph 5 mph 58% 0 in 383 W/m2
08:44 62.8 °F 47.8 °F 30.1 in North 2 mph 3 mph 58% 0 in 394 W/m2
08:49 63.1 °F 48.2 °F 30.1 in NNW 4 mph 10 mph 58% 0 in 408 W/m2
08:54 63.3 °F 47.8 °F 30.1 in NE 0.9 mph 4 mph 57% 0 in 420 W/m2
08:59 63.9 °F 48.4 °F 30.1 in NE 4 mph 9 mph 57% 0 in 438 W/m2
09:04 63.9 °F 47.8 °F 30.1 in NE 2.9 mph 4 mph 56% 0 in 450 W/m2
09:09 64 °F 48.6 °F 30.1 in NE 4 mph 7 mph 57% 0 in 464 W/m2
09:14 64.6 °F 48.9 °F 30.1 in Calm   8 mph 57% 0 in 476 W/m2
09:19 64.9 °F 48.9 °F 30.1 in NNE 2 mph 6 mph 56% 0 in 489 W/m2
09:24 65.3 °F 49.6 °F 30.1 in NNE 4.9 mph 7 mph 57% 0 in 499 W/m2
09:29 65.7 °F 49.5 °F 30.1 in SE 2.9 mph 6 mph 56% 0 in 515 W/m2
09:34 66 °F 49.5 °F 30.1 in NE 2.9 mph 10 mph 55% 0 in 529 W/m2
09:39 66.4 °F 50.2 °F 30.1 in ESE 2 mph 6 mph 56% 0 in 541 W/m2
09:44 67.1 °F 49.8 °F 30.1 in East 6 mph 7 mph 54% 0 in 552 W/m2
09:49 67.5 °F 50.2 °F 30.1 in NE 6.9 mph 7 mph 54% 0 in 564 W/m2
09:55 67.6 °F 50.4 °F 30.1 in SE 8.9 mph 9 mph 54% 0 in 578 W/m2
10:00 67.8 °F 50 °F 30.1 in East 0.9 mph 9 mph 53% 0 in 552 W/m2
10:05 68 °F 50.7 °F 30.1 in SSE 2 mph 8 mph 54% 0 in 54 W/m2
10:10 68.4 °F 50.5 °F 30.1 in NE 6.9 mph 10 mph 53% 0 in 93 W/m2
10:15 68.7 °F 50.9 °F 30.1 in East 10.1 mph 12 mph 53% 0 in 624 W/m2
10:20 69.1 °F 51.8 °F 30.1 in NE 8.9 mph 10 mph 54% 0 in 636 W/m2
10:25 69.3 °F 51.4 °F 30.1 in ESE 2.9 mph 12 mph 53% 0 in 650 W/m2
10:30 69.6 °F 51.3 °F 30.1 in East 4 mph 7 mph 52% 0 in 663 W/m2
10:35 70 °F 51.6 °F 30.1 in ESE 2 mph 8 mph 52% 0 in 670 W/m2
10:40 70 °F 51.1 °F 30.1 in SE 4 mph 14 mph 51% 0 in 682 W/m2
10:45 70.2 °F 51.3 °F 30.1 in SSE 0.9 mph 3 mph 51% 0 in 693 W/m2
10:50 70.5 °F 51.4 °F 30.1 in NE 4 mph 12 mph 51% 0 in 700 W/m2
10:55 70.9 °F 51.3 °F 30.1 in SSE 2 mph 5 mph 50% 0 in 714 W/m2
11:00 71.2 °F 51.6 °F 30.1 in SSE 4 mph 8 mph 50% 0 in 724 W/m2
11:05 71.6 °F 52 °F 30.1 in ENE 2 mph 7 mph 50% 0 in 735 W/m2
11:10 72 °F 52.3 °F 30.1 in NW 0.9 mph 7 mph 50% 0 in 742 W/m2
11:15 72.3 °F 51.4 °F 30.1 in ENE 4.9 mph 9 mph 48% 0 in 751 W/m2
11:20 72.1 °F 52 °F 30.1 in NE 4 mph 6 mph 49% 0 in 759 W/m2
11:25 72.1 °F 52 °F 30.1 in East 2.9 mph 7 mph 49% 0 in 772 W/m2
11:30 72.1 °F 51.4 °F 30.1 in ENE 4 mph 12 mph 48% 0 in 777 W/m2
11:35 72.1 °F 51.4 °F 30.1 in ENE 2 mph 4 mph 48% 0 in 782 W/m2
11:40 72.5 °F 51.6 °F 30.1 in NE 8.9 mph 12 mph 48% 0 in 791 W/m2
11:45 72.5 °F 52.3 °F 30.1 in East 4 mph 6 mph 49% 0 in 800 W/m2
11:50 72.7 °F 51.3 °F 30.1 in SSW 4.9 mph 12 mph 47% 0 in 805 W/m2
11:55 72.9 °F 52 °F 30.1 in ENE 2.9 mph 8 mph 48% 0 in 814 W/m2
12:00 73 °F 52.7 °F 30.1 in ENE 2 mph 12 mph 49% 0 in 819 W/m2
12:05 73.2 °F 52.9 °F 30.1 in SSE 2 mph 5 mph 49% 0 in 824 W/m2
12:10 73.8 °F 52.9 °F 30.1 in ENE 4.9 mph 9 mph 48% 0 in 828 W/m2
12:15 73.9 °F 52.5 °F 30.1 in North 8.9 mph 9 mph 47% 0 in 838 W/m2
12:20 74.3 °F 52.7 °F 30.1 in NE 2.9 mph 4 mph 47% 0 in 842 W/m2
12:25 74.7 °F 53.1 °F 30.1 in NNW 2 mph 9 mph 47% 0 in 851 W/m2
12:30 74.7 °F 52.5 °F 30.1 in NW 0.9 mph 4 mph 46% 0 in 853 W/m2
12:35 74.8 °F 52.7 °F 30.1 in NNE 11 mph 11 mph 46% 0 in 858 W/m2
12:40 75 °F 53.4 °F 30.1 in East 6.9 mph 8 mph 47% 0 in 856 W/m2
12:45 75.4 °F 53.2 °F 30.1 in NE 2 mph 9 mph 46% 0 in 863 W/m2
12:50 75.4 °F 52 °F 30.1 in East 2.9 mph 9 mph 44% 0 in 868 W/m2
12:55 75.6 °F 53.2 °F 30.1 in West 2.9 mph 8 mph 46% 0 in 870 W/m2
13:00 75.6 °F 52.2 °F 30.1 in NE 0.9 mph 9 mph 44% 0 in 875 W/m2
13:05 75.9 °F 53.1 °F 30.1 in ESE 2.9 mph 8 mph 45% 0 in 875 W/m2
13:11 76.1 °F 52.5 °F 30.1 in NW 4 mph 9 mph 44% 0 in 875 W/m2
13:16 76.3 °F 54 °F 30.1 in SE 2.9 mph 5 mph 46% 0 in 877 W/m2
13:21 76.5 °F 52.9 °F 30.1 in ENE 4 mph 8 mph 44% 0 in 879 W/m2
13:26 76.6 °F 53.1 °F 30.1 in SE 4.9 mph 7 mph 44% 0 in 881 W/m2
13:31 76.5 °F 52.3 °F 30.1 in ESE 2.9 mph 11 mph 43% 0 in 882 W/m2
13:36 76.5 °F 53.6 °F 30.1 in East 6.9 mph 7 mph 45% 0 in 882 W/m2
13:41 77.2 °F 54.9 °F 30.1 in East 6 mph 11 mph 46% 0 in 879 W/m2
13:46 77.4 °F 53.1 °F 30.1 in ENE 2 mph 5 mph 43% 0 in 884 W/m2
13:51 77.7 °F 54.1 °F 30.1 in ESE 4 mph 11 mph 44% 0 in 886 W/m2
13:56 78.1 °F 53.8 °F 30.1 in SSE 4 mph 9 mph 43% 0 in 882 W/m2
14:01 78.1 °F 53.1 °F 30.1 in East 6 mph 11 mph 42% 0 in 877 W/m2
14:06 78.1 °F 54.3 °F 30.1 in East 4.9 mph 7 mph 44% 0 in 875 W/m2
14:11 78.1 °F 53.1 °F 30.1 in ENE 2 mph 6 mph 42% 0 in 881 W/m2
14:16 78.3 °F 53.2 °F 30.1 in East 2 mph 10 mph 42% 0 in 872 W/m2
14:21 78.3 °F 53.2 °F 30 in ENE 2.9 mph 6 mph 42% 0 in 870 W/m2
14:26 78.4 °F 52.7 °F 30 in East 4 mph 6 mph 41% 0 in 868 W/m2
14:31 78.4 °F 53.4 °F 30 in ENE 0.9 mph 3 mph 42% 0 in 868 W/m2
14:36 78.8 °F 53.1 °F 30 in ENE 2 mph 6 mph 41% 0 in 867 W/m2
14:41 79.3 °F 52.9 °F 30 in NE 4 mph 11 mph 40% 0 in 861 W/m2
14:46 79.3 °F 52.2 °F 30 in East 2 mph 10 mph 39% 0 in 860 W/m2
14:51 79.3 °F 52.9 °F 30 in ENE 2 mph 11 mph 40% 0 in 856 W/m2
14:56 79.5 °F 54.5 °F 30 in East 2.9 mph 7 mph 42% 0 in 851 W/m2
15:01 79.7 °F 52.5 °F 30 in ENE 2 mph 9 mph 39% 0 in 851 W/m2
15:06 79.5 °F 53.1 °F 30 in East 2.9 mph 9 mph 40% 0 in 846 W/m2
15:11 79.7 °F 53.2 °F 30 in East 6.9 mph 11 mph 40% 0 in 837 W/m2
15:16 79.9 °F 52.7 °F 30 in ENE 2.9 mph 8 mph 39% 0 in 838 W/m2
15:21 79.9 °F 53.4 °F 30 in ENE 2 mph 12 mph 40% 0 in 821 W/m2
15:26 79.9 °F 53.4 °F 30 in East 2 mph 9 mph 40% 0 in 812 W/m2
15:31 80.1 °F 53.6 °F 30 in NE 4 mph 6 mph 40% 0 in 802 W/m2
15:36 80.1 °F 52.9 °F 30 in ENE 4 mph 11 mph 39% 0 in 798 W/m2
15:41 79.9 °F 53.4 °F 30 in East 6.9 mph 9 mph 40% 0 in 796 W/m2
15:46 79.7 °F 53.2 °F 30 in NW 2 mph 5 mph 40% 0 in 779 W/m2
15:51 79.9 °F 53.4 °F 30 in NE 2.9 mph 11 mph 40% 0 in 777 W/m2
15:56 79.9 °F 52.7 °F 30 in NE 4.9 mph 9 mph 39% 0 in 765 W/m2
16:01 79.9 °F 53.4 °F 30 in ENE 4 mph 8 mph 40% 0 in 759 W/m2
16:06 80.1 °F 53.6 °F 30 in NE 4.9 mph 5 mph 40% 0 in 754 W/m2
16:11 80.1 °F 52.9 °F 30 in NE 4 mph 6 mph 39% 0 in 751 W/m2
16:17 80.2 °F 52.3 °F 30 in East 2 mph 8 mph 38% 0 in 738 W/m2
16:22 80.1 °F 52.2 °F 30 in ENE 4 mph 5 mph 38% 0 in 737 W/m2
16:27 80.4 °F 52.5 °F 30 in East 6.9 mph 11 mph 38% 0 in 714 W/m2
16:32 80.4 °F 51.8 °F 30 in NE 2.9 mph 14 mph 37% 0 in 707 W/m2
16:37 80.2 °F 51.6 °F 30 in NE 2 mph 7 mph 37% 0 in 700 W/m2
16:42 80.1 °F 50.7 °F 30 in NE 0.9 mph 12 mph 36% 0 in 687 W/m2
16:47 80.4 °F 51.1 °F 30 in WNW 0.9 mph 5 mph 36% 0 in 679 W/m2
16:52 80.8 °F 51.3 °F 30 in NNE 10.1 mph 10 mph 36% 0 in 663 W/m2
16:57 80.8 °F 51.3 °F 30 in NE 4.9 mph 8 mph 36% 0 in 654 W/m2
17:02 80.4 °F 51.1 °F 30 in ESE 2.9 mph 9 mph 36% 0 in 643 W/m2
17:07 80.2 °F 51.6 °F 30 in SSE 4 mph 7 mph 37% 0 in 635 W/m2
17:12 80.4 °F 51.1 °F 30 in ENE 2 mph 5 mph 36% 0 in 617 W/m2
17:17 80.8 °F 51.3 °F 30 in NE 12.1 mph 12 mph 36% 0 in 603 W/m2
17:22 81 °F 50.7 °F 30 in NNE 2.9 mph 4 mph 35% 0 in 592 W/m2
17:27 81.5 °F 52 °F 30 in ESE 12 mph 12 mph 36% 0 in 584 W/m2
17:32 81.9 °F 51.4 °F 30 in East 2 mph 3 mph 35% 0 in 570 W/m2
17:37 81.5 °F 50.4 °F 30 in NE 4 mph 6 mph 34% 0 in 559 W/m2
17:42 80.8 °F 50.5 °F 30 in North 2 mph 8 mph 35% 0 in 545 W/m2
17:47 80.8 °F 50.5 °F 30 in NNE 2.9 mph 9 mph 35% 0 in 534 W/m2
17:52 80.8 °F 51.3 °F 30 in NE 2.9 mph 4 mph 36% 0 in 519 W/m2
17:58 80.8 °F 49.8 °F 30 in East 2 mph 5 mph 34% 0 in 504 W/m2
18:03 81 °F 50.7 °F 30 in NE 0.9 mph 6 mph 35% 0 in 492 W/m2
18:08 80.8 °F 49.8 °F 30 in ENE 8.1 mph 10 mph 34% 0 in 480 W/m2
18:13 80.6 °F 49.6 °F 30 in ESE 11 mph 11 mph 34% 0 in 462 W/m2
18:18 80.2 °F 50.9 °F 30 in NE 4.9 mph 8 mph 36% 0 in 445 W/m2
18:23 80.6 °F 50.4 °F 30 in NE 2 mph 8 mph 35% 0 in 413 W/m2
18:28 81 °F 50.7 °F 30 in ENE 2.9 mph 4 mph 35% 0 in 373 W/m2
18:33 81 °F 50 °F 30 in SE 2.9 mph 3 mph 34% 0 in 346 W/m2
18:38 81 °F 50 °F 30 in ESE 6.9 mph 8 mph 34% 0 in 323 W/m2
18:43 80.8 °F 49.8 °F 30 in NE 4 mph 4 mph 34% 0 in 304 W/m2
18:48 80.2 °F 49.3 °F 30 in ENE 2.9 mph 10 mph 34% 0 in 279 W/m2
18:53 80.1 °F 48.4 °F 30 in SE 0.9 mph 8 mph 33% 0 in 255 W/m2
18:58 80.1 °F 48.4 °F 30 in ENE 0.9 mph 10 mph 33% 0 in 241 W/m2
19:03 80.1 °F 49.1 °F 30 in East 2.9 mph 5 mph 34% 0 in 248 W/m2
19:08 79.9 °F 48.9 °F 30 in ENE 2.9 mph 5 mph 34% 0 in 267 W/m2
19:13 79.7 °F 48 °F 30 in ENE 2 mph 4 mph 33% 0 in 281 W/m2
19:18 79.7 °F 48 °F 30 in NE 0.9 mph 8 mph 33% 0 in 285 W/m2
19:23 79.9 °F 48.2 °F 30 in East 6.9 mph 7 mph 33% 0 in 274 W/m2
19:28 79.9 °F 48.2 °F 30 in North 2.9 mph 6 mph 33% 0 in 258 W/m2
19:33 79.5 °F 48.7 °F 30 in ESE 0.9 mph 6 mph 34% 0 in 234 W/m2
19:38 79.3 °F 49.3 °F 30 in NNW 4 mph 5 mph 35% 0 in 197 W/m2
19:43 79.3 °F 50 °F 30 in ENE 2.9 mph 8 mph 36% 0 in 167 W/m2
19:48 79.3 °F 50 °F 30 in NE 4 mph 4 mph 36% 0 in 156 W/m2
19:53 79.2 °F 48.4 °F 30 in NW 2 mph 4 mph 34% 0 in 155 W/m2
19:59 79.2 °F 49.1 °F 30 in ENE 2 mph 8 mph 35% 0 in 155 W/m2
20:04 79 °F 48.9 °F 30 in East 2.9 mph 4 mph 35% 0 in 142 W/m2
20:09 79 °F 50.5 °F 30 in Calm   2 mph 37% 0 in 132 W/m2
20:14 79 °F 49.8 °F 30 in Calm   2 mph 36% 0 in 116 W/m2
20:19 78.8 °F 49.6 °F 30 in ESE 4 mph 6 mph 36% 0 in 105 W/m2
20:24 78.4 °F 50 °F 30 in NNE 0.9 mph 4 mph 37% 0 in 93 W/m2
20:29 78.3 °F 50.5 °F 30 in NE 4 mph 4 mph 38% 0 in 81 W/m2
20:34 77.9 °F 50.2 °F 30 in East 0.9 mph 5 mph 38% 0 in 63 W/m2
20:39 77.4 °F 49.8 °F 30 in ENE 2 mph 5 mph 38% 0 in 54 W/m2
20:44 77.2 °F 49.6 °F 30 in East 0.9 mph 8 mph 38% 0 in 53 W/m2
20:49 76.8 °F 50 °F 30 in NE 2 mph 4 mph 39% 0 in 44 W/m2
20:54 76.6 °F 49.8 °F 30 in East 2.9 mph 8 mph 39% 0 in 37 W/m2
20:59 76.3 °F 50.2 °F 30 in SE 0.9 mph 1 mph 40% 0 in 26 W/m2
21:04 75.9 °F 50.5 °F 30 in ENE 2.9 mph 4 mph 41% 0 in 12 W/m2
21:09 75.6 °F 50.9 °F 30 in WSW 0.9 mph 6 mph 42% 0 in 11 W/m2
21:14 75 °F 50.4 °F 30 in ESE 0.9 mph 1 mph 42% 0 in 9 W/m2
21:19 74.7 °F 50 °F 30 in ESE 2 mph 3 mph 42% 0 in 7 W/m2
21:24 74.1 °F 50.2 °F 30 in East 2 mph 4 mph 43% 0 in 5 W/m2
21:29 73.8 °F 50.5 °F 30 in Calm   2 mph 44% 0 in 0 W/m2
21:34 73.4 °F 50.7 °F 30 in SE 0.9 mph 1 mph 45% 0 in 0 W/m2
21:39 73 °F 49.8 °F 30 in East 2.9 mph 3 mph 44% 0 in 0 W/m2
21:44 72.7 °F 50.7 °F 30 in Calm   1 mph 46% 0 in 0 W/m2
21:49 72.1 °F 50.2 °F 30 in ENE 0.9 mph 2 mph 46% 0 in 0 W/m2
21:55 71.8 °F 49.8 °F 30 in South 2 mph 3 mph 46% 0 in 0 W/m2
22:00 71.2 °F 50.5 °F 30 in East 0.9 mph 1 mph 48% 0 in 0 W/m2
22:05 70.7 °F 50 °F 30 in Calm   1 mph 48% 0 in 0 W/m2
22:10 70.3 °F 50.4 °F 30 in Calm   1 mph 49% 0 in 0 W/m2
22:15 69.8 °F 50.4 °F 30 in Calm     50% 0 in 0 W/m2
22:20 69.3 °F 50.9 °F 30 in East 0.9 mph 1 mph 52% 0 in 0 W/m2
22:25 68.7 °F 50.4 °F 30 in Calm     52% 0 in 0 W/m2
22:30 68.4 °F 50.5 °F 30 in East 0.9 mph 1 mph 53% 0 in 0 W/m2
22:35 67.6 °F 50.9 °F 30 in East 0.9 mph 2 mph 55% 0 in 0 W/m2
22:40 66.9 °F 50.7 °F 30 in East 0.9 mph 2 mph 56% 0 in 0 W/m2
22:45 66.6 °F 50.4 °F 30 in Calm     56% 0 in 0 W/m2
22:50 66 °F 50.4 °F 30 in Calm   2 mph 57% 0 in 0 W/m2
22:55 65.5 °F 50.4 °F 30 in Calm   1 mph 58% 0 in 0 W/m2
23:00 64.9 °F 50.2 °F 30 in East 0.9 mph 1 mph 59% 0 in 0 W/m2
23:05 64.6 °F 50.4 °F 30 in ESE 0.9 mph 2 mph 60% 0 in 0 W/m2
23:10 64.2 °F 50.5 °F 30 in Calm   2 mph 61% 0 in 0 W/m2
23:15 64 °F 50.7 °F 30 in Calm   1 mph 62% 0 in 0 W/m2
23:20 63.7 °F 50.4 °F 30 in Calm   2 mph 62% 0 in 0 W/m2
23:25 63.3 °F 50.5 °F 30 in Calm   1 mph 63% 0 in 0 W/m2
23:30 63 °F 50.5 °F 30 in ESE 0.9 mph 1 mph 64% 0 in 0 W/m2
23:35 62.8 °F 50.4 °F 30 in ESE 0.9 mph 1 mph 64% 0 in 0 W/m2
23:40 62.6 °F 50.2 °F 30 in Calm     64% 0 in 0 W/m2
23:45 62.4 °F 50.5 °F 30 in Calm     65% 0 in 0 W/m2
23:50 62.2 °F 50.4 °F 30 in Calm     65% 0 in 0 W/m2
23:55 62.1 °F 50.2 °F 30 in Calm     65% 0 in 0 W/m2
Juneau County Weather
Compliments of Weather Underground - 4 mb